[[{"header":{"parameterUnit":"m.s-1","parameterCategory":1,"la1":30.2991,"la2":30.254,"lo1":-89.0895,"lo2":-89.0444,"dy":0.0017,"dx":0.0017,"nx":28,"ny":28,"refTime":"2025-06-19T09:00:00:Z","depth":0,"parameterNumber":2,"parameterNumberName":"U-component_of_WINDS"},"data":[0,0,0,0,0,0,0,0,0,0,0,0,0,0,0,0,0,0,0,0,0,0,0,0,0,0,0,0,0,0,0,0,0,0,0,0,0,0,0,0,0,0,0,0,0,0,0,0,0,0,0,0,0,0,0,0,0,0,2.7042,2.7044,0,2.7189,2.719,2.7192,2.717,2.7167,2.7164,2.7162,2.7316,2.7322,2.7328,0,0,0,0,0,0,0,0,0,0,0,0,0,2.6744,2.675,2.7042,2.7044,2.7046,2.7188,2.719,2.7192,2.717,2.7167,2.7164,2.7161,2.7313,2.7321,2.7329,0,0,0,0,0,0,0,0,0,0,0,0,0,2.688,2.6751,2.7042,2.7052,2.7054,2.7188,2.7191,2.7193,2.7171,2.7167,2.7163,2.716,2.7311,2.732,2.733,2.7464,0,0,2.7359,2.7363,0,0,0,0,0,0,0,0,2.6873,2.6891,2.7048,2.7051,2.7054,2.7157,2.7142,2.7284,2.7172,2.7126,2.7162,2.7158,2.7266,2.7279,2.7315,2.7472,2.7478,2.736,2.7366,2.737,2.7373,0,0,0,0,0,0,0,2.6863,2.6885,2.71,2.7051,2.7054,2.7049,2.7064,2.7169,2.7216,2.713,2.7129,2.7146,2.7267,2.7306,2.7318,2.748,2.736,2.7368,2.7374,2.7378,2.7752,2.7756,0,0,0,0,0,0,2.6851,2.6877,2.7095,2.7105,2.6952,2.7058,2.7075,2.7128,2.7214,2.7224,2.7149,2.7145,2.7291,2.7307,2.7324,2.7484,2.737,2.7379,2.7385,2.7748,2.7753,2.7757,0,0,0,0,0,0,2.6844,2.687,2.709,2.6991,2.7018,2.7067,2.7127,2.7133,2.7171,2.7229,2.7237,2.718,2.7289,2.731,2.7429,2.749,2.7383,2.7392,2.7743,2.7749,2.7755,2.7809,0,0,0,0,0,0,2.6836,2.6868,2.692,2.6992,2.7023,2.7192,2.713,2.7138,2.7188,2.7183,2.726,2.7269,2.7287,2.7414,2.7438,2.7501,2.74,2.7738,2.7746,2.7753,2.7802,2.7816,2.7828,0,0,0,0,0,2.6825,2.693,2.6922,2.6949,2.7089,2.7195,2.7213,2.7231,2.7193,2.7245,2.7281,2.7267,2.7479,2.7427,2.7453,2.752,2.7734,2.7743,2.7752,2.7796,2.7813,2.7828,0,0,0,0,0,0,2.6866,2.694,2.6932,2.7063,2.7123,2.7191,2.7257,2.725,2.7322,2.7315,2.7335,2.7353,2.7472,2.7508,2.7448,2.7653,2.7601,2.7616,2.7625,2.7642,2.7655,2.7643,2.7408,0,0,0,0,0,2.689,2.6969,2.703,2.714,2.7171,2.7209,2.7256,2.7264,2.7327,2.7353,2.7398,2.7461,2.7541,2.7594,2.7672,2.7807,2.7822,2.7866,2.7879,2.789,2.7902,2.7974,2.7993,2.7788,2.7788,2.7788,0,0,2.6941,2.6991,2.704,2.715,2.7197,2.7279,2.723,2.732,2.7381,2.7367,2.748,2.7516,2.7587,2.7714,2.7772,2.7747,2.7962,2.7902,2.791,2.7916,2.7985,2.8005,2.8022,2.7794,2.7793,2.7792,0,0,2.7074,2.7121,2.7216,2.7264,2.7335,2.736,2.7382,2.7452,2.7474,2.7588,2.7579,2.7652,2.7791,2.7841,2.7885,2.8035,2.8024,2.806,2.8129,2.8198,2.8214,2.8229,2.828,2.8298,2.8072,2.8073,2.8073,0,2.7128,2.725,2.7267,2.7356,2.7404,2.7394,2.7489,2.7536,2.7629,2.7662,2.7634,2.7806,2.7853,2.799,2.8026,2.8063,2.8089,2.805,2.8211,2.8225,2.8239,2.8288,2.8307,2.8076,2.8076,2.8076,2.8075,0,2.7312,2.7397,2.7466,2.7554,2.761,2.7702,2.7732,2.7787,2.779,2.7818,2.7933,2.7989,2.8076,2.811,2.8115,2.8247,2.8229,2.8206,2.8153,2.8262,2.8308,2.8327,2.8082,2.808,2.8079,2.8078,0,0,2.7475,2.7569,2.7594,2.7633,2.771,2.7776,2.7868,2.7952,2.7997,2.8062,2.8138,2.8255,2.8233,2.8282,2.8293,2.8355,2.8466,2.8323,2.8325,2.8345,2.8612,2.8628,2.8649,2.846,2.8464,2.8467,2.8605,0,2.7614,2.7774,2.7791,2.7934,2.8012,2.8002,2.8082,2.8138,2.8166,2.8236,2.8268,2.8349,2.8315,2.8344,2.8404,2.844,2.852,2.8431,2.853,2.8534,2.851,2.8674,2.8691,2.8819,2.8624,2.8627,2.8629,0,2.7798,2.7865,2.8015,2.8079,2.8112,2.8183,2.826,2.8328,2.8391,2.8406,2.8461,2.8463,2.8557,2.8502,2.8631,2.857,2.8612,2.8635,2.8641,2.8649,2.8586,2.8684,2.8861,2.8879,2.8658,2.8656,2.8654,0,2.7898,2.8027,2.8132,2.8166,2.8244,2.8294,2.8329,2.8388,2.8436,2.8504,2.8535,2.8614,2.8657,2.8717,2.874,2.8699,2.8867,2.8815,2.8882,2.8881,2.8916,2.8913,2.91,2.8948,2.8948,2.8947,2.8947,0,2.805,2.8141,2.8178,2.8243,2.8345,2.8363,2.8464,2.8497,2.8549,2.862,2.8618,2.8685,2.8712,2.8783,2.8802,2.8905,2.8925,2.894,2.8943,2.8938,2.8936,2.8965,2.8955,2.8952,2.8951,2.895,2.8949,0,2.8178,2.8207,2.8321,2.8384,2.8402,2.8475,2.8529,2.8591,2.8618,2.8708,2.873,2.8772,2.8855,2.8884,2.8987,2.8999,2.9117,2.9115,2.9095,2.9095,2.9159,2.9152,2.9368,2.9397,2.9229,2.923,2.9231,0,2.8272,2.8342,2.8412,2.8458,2.8494,2.857,2.8619,2.8639,2.869,2.8765,2.8819,2.8901,2.8968,2.9101,2.9141,2.9219,2.9216,2.9287,2.9228,2.922,2.9214,2.9208,2.9214,2.9297,2.9299,2.93,2.9302,0,2.8435,2.8444,2.8514,2.8588,2.8646,2.8706,2.8764,2.8802,2.8831,2.8888,2.8972,2.9024,2.9126,2.9208,2.9286,2.9323,2.9317,2.932,2.9339,2.9334,2.9318,2.9324,2.9122,2.9314,2.9313,2.9312,2.9311,2.9311,2.8547,2.8607,2.8665,2.8742,2.8787,2.8841,2.8901,2.8935,2.9005,2.9088,2.9097,2.9187,2.9246,2.9351,2.9391,2.9462,2.9442,2.9471,2.9477,2.9483,2.9486,2.9309,2.9477,2.9476,2.9476,2.9476,2.9476,0,2.8707,2.8743,2.8813,2.8893,2.8953,2.8941,2.9004,2.9055,2.9134,2.919,2.9254,2.935,2.9428,2.9474,2.9552,2.96,2.9599,2.9619,2.9615,2.9623,2.9501,2.9475,2.9618,2.9618,2.9618,2.9618,2.9618,2.9618,2.8797,2.8897,2.8914,2.9036,2.9072,2.9159,2.9196,2.9245,2.9288,2.9394,2.9459,2.9487,2.9539,2.962,2.9691,2.9702,2.973,2.9752,2.9761,2.9646,2.9632,2.9617,2.9593,2.9759,2.9759,2.9877,2.9878,2.9878]},{"header":{"parameterUnit":"m.s-1","parameterCategory":1,"la1":30.2991,"la2":30.254,"lo1":-89.0895,"lo2":-89.0444,"dy":0.0017,"dx":0.0017,"nx":28,"ny":28,"refTime":"2025-06-19T09:00:00:Z","depth":0,"parameterNumber":3,"parameterNumberName":"V-component_of_WINDS"},"data":[0,0,0,0,0,0,0,0,0,0,0,0,0,0,0,0,0,0,0,0,0,0,0,0,0,0,0,0,0,0,0,0,0,0,0,0,0,0,0,0,0,0,0,0,0,0,0,0,0,0,0,0,0,0,0,0,0,0,1.0309,1.031,0,1.0355,1.0356,1.0356,1.0341,1.034,1.0339,1.0338,1.0386,1.0388,1.0391,0,0,0,0,0,0,0,0,0,0,0,0,0,1.0208,1.021,1.0309,1.031,1.0311,1.0355,1.0356,1.0357,1.0341,1.034,1.0339,1.0338,1.0386,1.0388,1.0391,0,0,0,0,0,0,0,0,0,0,0,0,0,1.0253,1.0211,1.0309,1.0308,1.0309,1.0355,1.0356,1.0357,1.0342,1.034,1.0339,1.0337,1.0385,1.0388,1.0391,1.0442,0,0,1.0401,1.0403,0,0,0,0,0,0,0,0,1.025,1.0257,1.0308,1.0308,1.0309,1.0341,1.0338,1.0385,1.0342,1.0329,1.0338,1.0336,1.0373,1.0377,1.0389,1.0444,1.0446,1.0402,1.0404,1.0405,1.0406,0,0,0,0,0,0,0,1.0247,1.0255,1.0328,1.0309,1.0309,1.0305,1.031,1.0347,1.0359,1.033,1.0329,1.0335,1.0373,1.0386,1.039,1.0447,1.0402,1.0405,1.0407,1.0408,1.0544,1.0545,0,0,0,0,0,0,1.0244,1.0252,1.0326,1.0329,1.0275,1.0308,1.0314,1.0332,1.0358,1.0361,1.0336,1.0334,1.0381,1.0386,1.0391,1.0451,1.0405,1.0408,1.041,1.0542,1.0544,1.0546,0,0,0,0,0,0,1.0242,1.0251,1.0324,1.029,1.0299,1.0312,1.0333,1.0334,1.0347,1.0363,1.0365,1.0347,1.038,1.0387,1.0429,1.0452,1.041,1.0413,1.054,1.0543,1.0545,1.0571,0,0,0,0,0,0,1.0239,1.025,1.0269,1.0291,1.0301,1.0361,1.0334,1.0336,1.0353,1.035,1.0374,1.0376,1.0379,1.0424,1.0432,1.0456,1.0415,1.0538,1.0541,1.0544,1.0569,1.0574,1.058,0,0,0,0,0,1.0235,1.0276,1.0271,1.028,1.0326,1.0363,1.0369,1.0371,1.0355,1.0374,1.0384,1.0375,1.0449,1.0428,1.0437,1.0463,1.0537,1.0541,1.0544,1.0566,1.0573,1.0579,0,0,0,0,0,0,1.0258,1.0279,1.0273,1.0322,1.034,1.036,1.0385,1.0379,1.0403,1.04,1.0402,1.0407,1.045,1.0461,1.0438,1.0512,1.049,1.0496,1.0504,1.0511,1.0516,1.0513,1.0418,0,0,0,0,0,1.0268,1.0296,1.0313,1.0354,1.0364,1.0373,1.0389,1.0389,1.0408,1.0416,1.0429,1.0449,1.0476,1.0494,1.052,1.057,1.0574,1.0592,1.0597,1.0602,1.0606,1.0632,1.064,1.0558,1.0558,1.0558,0,0,1.029,1.0305,1.0323,1.0359,1.0373,1.0402,1.0379,1.0411,1.0432,1.0421,1.0461,1.0472,1.0493,1.0539,1.056,1.0549,1.063,1.0606,1.061,1.0612,1.0637,1.0644,1.0651,1.056,1.056,1.056,0,0,1.0345,1.0359,1.0394,1.0409,1.0431,1.0436,1.0445,1.0465,1.0471,1.0511,1.0503,1.0528,1.0576,1.0591,1.0605,1.0663,1.0656,1.0672,1.0701,1.0726,1.0732,1.0738,1.0757,1.0765,1.0677,1.0677,1.0677,0,1.037,1.0413,1.0413,1.0445,1.0461,1.0451,1.0486,1.0501,1.053,1.0541,1.0529,1.0586,1.0601,1.0649,1.0663,1.0675,1.0684,1.0669,1.0731,1.0737,1.0742,1.0761,1.0768,1.0678,1.0678,1.0678,1.0678,0,1.0441,1.0471,1.0497,1.0524,1.0543,1.0576,1.0582,1.06,1.0598,1.0605,1.0645,1.0661,1.069,1.0701,1.07,1.0749,1.0742,1.073,1.0708,1.0751,1.0769,1.0776,1.0681,1.068,1.068,1.0679,0,0,1.0513,1.0539,1.0548,1.056,1.0583,1.0606,1.0638,1.0665,1.068,1.0701,1.0727,1.0767,1.0756,1.0771,1.0772,1.0794,1.0837,1.0779,1.078,1.0788,1.0891,1.0899,1.0907,1.0832,1.0834,1.0835,1.0888,0,1.0568,1.0625,1.0626,1.0678,1.0705,1.0695,1.0723,1.074,1.0746,1.077,1.0777,1.0804,1.0788,1.0797,1.0819,1.0827,1.0858,1.0824,1.0857,1.0858,1.0851,1.0917,1.0926,1.0976,1.0895,1.0897,1.0898,0,1.0642,1.0663,1.0717,1.0734,1.0746,1.0771,1.0795,1.0818,1.0836,1.0839,1.0856,1.0852,1.0884,1.0861,1.0905,1.0882,1.0895,1.0901,1.0903,1.0906,1.088,1.092,1.0992,1.0999,1.0909,1.0908,1.0907,0,1.0687,1.0729,1.0767,1.0777,1.0798,1.0816,1.0826,1.0843,1.0858,1.0879,1.0889,1.0914,1.0927,1.0946,1.0949,1.0932,1.0993,1.097,1.0996,1.0996,1.1009,1.1008,1.1082,1.1019,1.1018,1.1018,1.1018,0,1.0749,1.0782,1.0787,1.081,1.0847,1.0847,1.0883,1.0891,1.0906,1.093,1.0924,1.0946,1.0949,1.0972,1.0975,1.101,1.1016,1.1019,1.1019,1.102,1.1019,1.1028,1.1025,1.102,1.102,1.102,1.1019,0,1.0805,1.081,1.085,1.0866,1.0871,1.0897,1.0911,1.0933,1.0938,1.0968,1.0976,1.0984,1.1011,1.1016,1.1048,1.1049,1.1091,1.1088,1.1085,1.1084,1.1109,1.1106,1.1191,1.1202,1.1132,1.1133,1.1133,0,1.0844,1.0869,1.0888,1.0903,1.0913,1.0939,1.0954,1.0955,1.0971,1.0993,1.1012,1.1038,1.1059,1.1102,1.1111,1.1135,1.1132,1.116,1.1135,1.1134,1.1131,1.1129,1.1131,1.1165,1.1165,1.1166,1.1166,0,1.0913,1.0913,1.0936,1.0959,1.0977,1.0995,1.1013,1.1025,1.1029,1.1047,1.1074,1.109,1.1122,1.1147,1.1171,1.118,1.1174,1.1174,1.1181,1.1181,1.1178,1.1179,1.1097,1.1172,1.1172,1.1171,1.1171,1.1171,1.0961,1.0982,1.0998,1.1023,1.1035,1.1051,1.1072,1.1079,1.1102,1.1127,1.1126,1.1156,1.1172,1.1202,1.1213,1.1236,1.1227,1.1237,1.124,1.1242,1.1244,1.1174,1.124,1.124,1.124,1.124,1.124,0,1.1028,1.1037,1.106,1.1083,1.1103,1.1094,1.1112,1.1129,1.1155,1.117,1.119,1.122,1.1245,1.1255,1.1278,1.1294,1.1292,1.13,1.1299,1.1301,1.1251,1.1242,1.1302,1.1302,1.1302,1.1302,1.1302,1.1302,1.1065,1.11,1.1102,1.1143,1.1152,1.118,1.1191,1.1205,1.1217,1.1251,1.1271,1.1277,1.129,1.1314,1.1336,1.1338,1.1347,1.1357,1.1358,1.1311,1.1305,1.1299,1.129,1.1359,1.1359,1.1405,1.1406,1.1406]}]]